"Pseudo-MPEC" for ZTF102W

Created 2025 Jul 7 4:35:11 UT using Find_Orb

Click here for an explanation of pseudo-MPECs

 
 Astrometry: 
     ZTF102W* C2025 07 01.31216418 29 19.028+17 30 51.18   ~724o 19.14gUNEOCPI41
     ZTF102W  C2025 07 01.31251218 29 19.761+17 31 14.52   ~724o 19.14gUNEOCPI41
     ZTF102W  C2025 07 01.31463018 29 24.423+17 33 34.78   ~724o 19.29gUNEOCPI41
     ZTF102W  C2025 07 01.31497718 29 25.182+17 33 57.51   ~724o 19.29gUNEOCPI41

Station data:
(I41) Palomar Mountain--ZTF  (N33.357336 W116.859780)  US/California.
   Observers B. T. Bolin, Z. T. F. Collaboration. Measurers B. T. Bolin,
   Z.-Y. Lin, F. J. Masci. 1.2-m f/2.4 Schmidt.

Orbital elements:  ZTF102W
   Perihelion 2025 Jun 1.91977 +/- 36.2 TT = 22:04:28 (JD 2460828.41977)
Epoch 2025 Jul  1.0 TT = JDT 2460857.5   Earth MOID: 0.0027   Ju: 0.3679
M   2.99113761 +/- 23               (J2000 ecliptic)             AutoNEOCP
n   0.10285812 +/- 0.198            Peri.  319.62191 +/- 60
a   4.51138951 +/- 5.78             Node   278.66720 +/- 80
e   0.7978372 +/- 0.262             Incl.   28.29768 +/- 8
P   9.58221                H 27.14  G  0.15   U 11.7  SR
q 0.91203475 +/- 0.102    Q 8.11074428 +/- 41.4
From 4 observations 2025 July 1 (4.1 min); mean residual 0".14
Residuals in arcseconds: 
250701 I41  .21+  .11-    250701 I41  .01+  .09+    
250701 I41  .25-  .11+    250701 I41  .02+  .09-    

Ephemerides (geocentric):
Date (UTC) HH   RA             Dec           delta  r     elong  mag " sig PA
---- --------  ------------   ------------  ------ ------ -----  --- --------
2025 07 07 05  19 03 22.799   +30 45 17.55  .08397 1.0689 126.7 23.8  61d  75
2025 07 07 06  19 03 24.790   +30 45 50.74  .08449 1.0692 126.6 23.8  61d  75
2025 07 07 07  19 03 26.756   +30 46 23.39  .08501 1.0695 126.6 23.8  61d  75
2025 07 07 08  19 03 28.700   +30 46 55.50  .08554 1.0699 126.6 23.8  61d  75
2025 07 07 09  19 03 30.620   +30 47 27.09  .08606 1.0702 126.6 23.8  61d  75
2025 07 07 10  19 03 32.518   +30 47 58.17  .08658 1.0705 126.6 23.8  61d  75
2025 07 07 11  19 03 34.395   +30 48 28.74  .08710 1.0709 126.6 23.8  61d  74
2025 07 07 12  19 03 36.249   +30 48 58.82  .08763 1.0712 126.6 23.8  61d  74
2025 07 07 13  19 03 38.082   +30 49 28.40  .08815 1.0715 126.6 23.9  61d  74
2025 07 07 14  19 03 39.895   +30 49 57.50  .08867 1.0719 126.6 23.9  61d  74
2025 07 07 15  19 03 41.686   +30 50 26.13  .08919 1.0722 126.6 23.9  61d  74
2025 07 07 16  19 03 43.458   +30 50 54.29  .08972 1.0725 126.6 23.9  61d  74
2025 07 07 17  19 03 45.210   +30 51 22.00  .09024 1.0729 126.6 23.9  61d  74
2025 07 07 18  19 03 46.943   +30 51 49.25  .09076 1.0732 126.6 23.9  61d  74
2025 07 07 19  19 03 48.656   +30 52 16.06  .09129 1.0735 126.6 23.9  61d  74
2025 07 07 20  19 03 50.350   +30 52 42.43  .09181 1.0739 126.6 24.0  61d  74
2025 07 07 21  19 03 52.027   +30 53 08.37  .09233 1.0742 126.6 24.0  61d  74
2025 07 07 22  19 03 53.684   +30 53 33.88  .09285 1.0745 126.6 24.0  61d  74
2025 07 07 23  19 03 55.325   +30 53 58.98  .09338 1.0749 126.6 24.0  61d  74
2025 07 08 00  19 03 56.947   +30 54 23.67  .09390 1.0752 126.6 24.0  61d  74
2025 07 08 01  19 03 58.552   +30 54 47.95  .09442 1.0755 126.6 24.0  61d  74
2025 07 08 02  19 04 00.140   +30 55 11.83  .09494 1.0759 126.6 24.0  61d  74
2025 07 08 03  19 04 01.712   +30 55 35.32  .09547 1.0762 126.6 24.0  61d  74
2025 07 08 04  19 04 03.267   +30 55 58.42  .09599 1.0766 126.6 24.1  61d  75
2025 07 08 05  19 04 04.806   +30 56 21.14  .09651 1.0769 126.6 24.1  61d  75
2025 07 08 06  19 04 06.329   +30 56 43.48  .09704 1.0772 126.6 24.1  61d  75
2025 07 08 07  19 04 07.836   +30 57 05.45  .09756 1.0776 126.6 24.1  61d  75
2025 07 08 08  19 04 09.328   +30 57 27.06  .09808 1.0779 126.6 24.1  61d  75
2025 07 08 09  19 04 10.805   +30 57 48.31  .09860 1.0782 126.6 24.1  61d  75
2025 07 08 10  19 04 12.267   +30 58 09.20  .09913 1.0786 126.6 24.1  61d  74
2025 07 08 11  19 04 13.714   +30 58 29.74  .09965 1.0789 126.6 24.1  61d  74
2025 07 08 12  19 04 15.147   +30 58 49.94  .10017 1.0793 126.5 24.1  61d  74
2025 07 08 13  19 04 16.566   +30 59 09.79  .10070 1.0796 126.5 24.2  61d  74
2025 07 08 14  19 04 17.970   +30 59 29.31  .10122 1.0799 126.5 24.2  62d  74
2025 07 08 15  19 04 19.361   +30 59 48.50  .10174 1.0803 126.5 24.2  64d  78
2025 07 08 16  19 04 20.738   +31 00 07.36  .10226 1.0806 126.5 24.2  64d  78
2025 07 08 17  19 04 22.102   +31 00 25.89  .10279 1.0810 126.5 24.2  63d  78
2025 07 08 18  19 04 23.453   +31 00 44.11  .10331 1.0813 126.5 24.2  63d  78
2025 07 08 19  19 04 24.791   +31 01 02.02  .10383 1.0816 126.5 24.2  63d  78
2025 07 08 20  19 04 26.116   +31 01 19.61  .10436 1.0820 126.5 24.2  63d  77
2025 07 08 21  19 04 27.429   +31 01 36.90  .10488 1.0823 126.5 24.2  62d  77
2025 07 08 22  19 04 28.729   +31 01 53.89  .10540 1.0827 126.5 24.3  62d  77
2025 07 08 23  19 04 30.017   +31 02 10.58  .10592 1.0830 126.5 24.3  62d  77
2025 07 09 00  19 04 31.293   +31 02 26.97  .10645 1.0833 126.5 24.3  62d  77
2025 07 09 01  19 04 32.557   +31 02 43.08  .10697 1.0837 126.5 24.3  62d  77
2025 07 09 02  19 04 33.810   +31 02 58.90  .10749 1.0840 126.5 24.3  62d  77
2025 07 09 03  19 04 35.051   +31 03 14.43  .10802 1.0844 126.5 24.3  62d  77
2025 07 09 04  19 04 36.281   +31 03 29.68  .10854 1.0847 126.5 24.3  62d  76